Location: Boo
(59.3083°N, 18.2784°E)
Time: 13:38:16
(UTC+01:00)

BlueWalker 3 - Visible Passes

Search period start: 01 December 2022 00:00
Search period end: 11 December 2022 00:00
Orbit: 500 x 519 km, 53.2° (Epoch: 01 December)

Date Brightness Start Highest point End Pass type
(mag) Time Alt. Az. Time Alt. Az. Time Alt. Az.
01 Dec 4.1 15:42:42 10° SSW 15:45:24 18° SSE 15:48:06 10° ESE visible
01 Dec 3.2 17:19:49 10° SW 17:23:20 32° S 17:24:49 24° SE visible
01 Dec 4.3 18:57:58 10° WSW 18:59:38 21° SW 18:59:38 21° SW visible
02 Dec 3.3 17:01:24 10° SW 17:04:55 32° S 17:07:09 18° ESE visible
02 Dec 3.8 18:39:34 10° WSW 18:41:59 26° SW 18:41:59 26° SW visible
03 Dec 3.3 16:43:00 10° WSW 16:46:31 32° S 16:49:31 13° ESE visible
03 Dec 3.5 18:21:11 10° WSW 18:24:20 29° SSW 18:24:20 29° SSW visible
04 Dec 3.4 16:24:34 10° WSW 16:28:07 33° S 16:31:39 10° ESE visible
04 Dec 3.4 18:02:47 10° WSW 18:06:12 29° SSW 18:06:44 28° S visible
05 Dec 3.4 16:06:09 10° WSW 16:09:42 33° S 16:13:14 10° ESE visible
05 Dec 3.6 17:44:23 10° WSW 17:47:47 29° SSW 17:49:10 23° SSE visible
05 Dec 5.1 19:23:34 10° WSW 19:24:00 11° WSW 19:24:00 11° WSW visible
06 Dec 3.5 15:47:43 10° WSW 15:51:17 33° S 15:54:49 10° ESE visible
06 Dec 3.7 17:25:59 10° WSW 17:29:22 28° SSW 17:31:40 16° SE visible
06 Dec 4.8 19:05:15 10° WSW 19:06:30 13° SW 19:06:30 13° SW visible
07 Dec 3.8 17:07:34 10° WSW 17:10:56 28° SSW 17:14:15 10° SE visible
07 Dec 4.7 18:46:55 10° WSW 18:48:41 13° SW 18:49:06 13° SSW visible
08 Dec 3.9 16:49:09 10° WSW 16:52:30 27° SSW 16:55:50 10° SE visible
08 Dec 4.8 18:28:36 10° WSW 18:30:14 12° SW 18:31:49 10° SSW visible
09 Dec 4.0 16:30:43 10° WSW 16:34:03 27° SSW 16:37:22 10° SE visible
09 Dec 4.9 18:10:18 10° WSW 18:11:46 12° SW 18:13:14 10° SSW visible
10 Dec 4.1 16:12:17 10° WSW 16:15:36 26° SSW 16:18:54 10° SE visible
10 Dec 5.0 17:52:01 10° WSW 17:53:18 11° SW 17:54:35 10° SSW visible
